Regional Weather Roundup
Issued by NWS

Home | Current Version | Previous Version | Graphics & Text | Print | Product List | Glossary On
Versions: 1 2 3 4 5 6 7 8 9 10 11 12 13 14 15 16 17 18 19 20 21 22 23 24 25 26 27 28 29 30 31 32 33 34 35 36 37 38 39 40 41 42 43 44 45 46 47 48 49 50
000
ASUS43 KIND 272209
RWRIN

WEATHER ROUNDUP FOR INDIANA
NATIONAL WEATHER SERVICE INDIANAPOLIS IN
500 PM EST THU NOV 27 2014

NOTE: "FAIR" INDICATES FEW OR NO CLOUDS BELOW 12,000 FEET WITH NO
SIGNIFICANT WEATHER AND/OR OBSTRUCTIONS TO VISIBILITY.

* - STATION DOES NOT REPORT WEATHER SUCH AS PRECIPITATION OR FOG.

+ - STATION NOT QUALITY CONTROLLED BY THE NATIONAL WEATHER SERVICE.
    USE DATA WITH CAUTION...ESPECIALLY DEWPOINT AND RELATIVE
    HUMIDITY OBSERVATIONS.

INZ001>003-010>013-019-020-272300-
NORTHWEST INDIANA

CITY           SKY/WX    TMP DP  RH WIND       PRES   REMARKS
GARY /AIRPORT/ CLOUDY    27  16  63 W16       30.38R WCI  14
KNOX *+        CLOUDY    26  22  85 NW12      30.34R WCI  15
LA PORTE +     FLURRIES  28  21  76 W6G18     30.34R WCI  21
MICHIGAN CITY+ CLOUDY    28  18  64 W13       30.35R WCI  18
MONTICELLO +   CLOUDY    26  19  75 W13       30.36R WCI  15
RENSSELAER +   FLURRIES  28  23  80 W14       30.38R WCI  17
VALPARAISO     LGT SNOW  23  19  85 W8        30.36R FOG     WCI  14

$$

LMZ046-743>745-272300-
SOUTHERN LAKE MICHIGAN

STATION/POSITION TIME  TEMP WIND        PRES
                       AIR  DIR/SP/G
                 (UTC) (F)  (DEG/KT/KT) (MB)
MICHIGAN CITY    2200   27  280/ 20/ 23   N/A

$$

INZ004-005-014>016-021>024-272300-
NORTH CENTRAL INDIANA

CITY           SKY/WX    TMP DP  RH WIND       PRES   REMARKS
GOSHEN         HVY SNOW  27  23  85 NW16      30.29R VSB 1/4 WCI  15
LOGANSPORT +   FLURRIES  27  19  74 W10       30.36R WCI  17
PERU/GRISSOM   CLOUDY    27  23  85 W16G23    30.33R WCI  14
ROCHESTER +    FLURRIES  30  27  86 W9        30.33R WCI  22
SOUTH BEND     LGT SNOW  27  22  81 W15       30.32R WCI  15
WARSAW +       FLURRIES  28  25  86 W14       30.29S WCI  17

$$

INZ006>009-017-018-025>027-272300-
NORTHEAST INDIANA

CITY           SKY/WX    TMP DP  RH WIND       PRES   REMARKS
ANGOLA *+      CLOUDY    28  23  80 NW13      30.23R WCI  18
AUBURN +       LGT SNOW  32  27  80 W10G16    30.26R WCI  24
FORT WAYNE     LGT SNOW  29  24  82 W14       30.29R WCI  18
HUNTINGTON +   FLURRIES  27  23  84 W9G18     30.30R WCI  18

$$

INZ028-029-035-036-043>045-051>053-272300-
WEST CENTRAL INDIANA

CITY           SKY/WX    TMP DP  RH WIND       PRES   REMARKS
GREENCASTLE +  FLURRIES  28  21  74 W5        30.38R WCI  23
LAFAYETTE      CLOUDY    26  19  74 NW13      30.38R WCI  15
TERRE HAUTE    LGT SNOW  28  22  78 W7        30.41R WCI  21

$$

INZ030>032-037>040-046>048-054>057-064-065-272300-
CENTRAL INDIANA

CITY           SKY/WX    TMP DP  RH WIND       PRES   REMARKS
CP ATTERBURY + CLOUDY    30  19  64 NW13      30.38R WCI  20
COLUMBUS       CLOUDY    28  21  74 NW12      30.38R WCI  18
FRANKFORT +    MOCLDY    28  21  76 W14       30.37R WCI  16
INDIANAPOLIS   FLURRIES  27  20  75 NW9       30.36R WCI  18
-EAGLE CREEK   CLOUDY    28  20  71 NW12      30.35R WCI  18
KOKOMO *+      CLOUDY    27  19  74 W18G24    30.34R WCI  13
MARION +         N/A     27  21  79 NW18G24   30.33R HAZE    WCI  14
MT COMFORT *+  CLOUDY    27  16  63 W13G21    30.35R WCI  16
SHELBYVILLE    CLOUDY    29  19  66 NW18      30.35R WCI  16
ZIONSVILLE +   CLOUDY    28  20  72 NW12      30.36R WCI  17

$$

INZ033-034-041-042-049-050-058-059-272300-
EAST CENTRAL INDIANA

CITY           SKY/WX    TMP DP  RH WIND       PRES   REMARKS
MUNCIE         CLOUDY    28  21  75 W16       30.32R WCI  16

$$

INZ060-061-067>069-081>083-085>088-272300-
SOUTHWEST INDIANA

CITY           SKY/WX    TMP DP  RH WIND       PRES   REMARKS
EVANSVILLE     CLOUDY    30  21  69 NW8       30.46R WCI  22
HUNTINGBURG *+ CLOUDY    28  21  74 W13       30.44R WCI  18
WASHINGTON +   FLURRIES  29  25  86 W7        30.43R WCI  22

$$

INZ062-063-066-070>080-084-089>092-272300-
SOUTH CENTRAL AND SOUTHEAST INDIANA

CITY           SKY/WX    TMP DP  RH WIND       PRES   REMARKS
BLOOMINGTON    LGT SNOW  27  22  81 NW9       30.38R WCI  18

$$




USA.gov is the U.S. government's official web portal to all federal, state and local government web resources and services.